sat.trackr.live / text

‹ back to catalog

STARLINK-4732

NORAD 53870 · 2022-114BE

PAYLOAD ACTIVE UNKNOWN

§ Identity

Operator
Country
US
Launch date
2022-09-19
Launch site
AFETR
Launch vehicle
Mass (kg)
RCS (m²)

Purposes: comms

External: N2YO · Heavens-Above · Gunter

§ Orbital elements

Epoch: 2026-09-20T21:56:03.608160Z

Period
93.85 min
Inclination
53.1594°
Eccentricity
0.0001208
Mean motion
15.34391466 rev/d
Perigee alt
461.9 km
Apogee alt
463.6 km
Semi-major
6,840.9 km
B*
8.3526e-5
RAAN
91.6878°
Arg perigee
87.4371°
Mean anomaly
272.6770°
Rev number
22,308

§ Raw data

STARLINK-47321 53870U 22114BE  26263.91393065  .00002446  00000+0  83526-4 0  99912 53870  53.1594  91.6878 0001208  87.4371 272.6770 15.34391466223080

JSON: /api/v1/satellites/53870 · /tle

For live sub-satellite position, see the globe view (requires WebGL).

§ Visibility from observer

Set your observer location to see the next 7 days of passes ≥ 10°. The values pass through the URL so the page stays shareable.

No JS? Fill the form by hand. The geolocation button needs JavaScript.